Location: Vista Encantada
(35.1109°N, 106.5681°W)
Time: 08:01:16
(UTC+00:00)

Cosmos 407 Rocket - Pass Details

Date: 29 October 2020
Orbit: 743 x 787 km, 74.1° (Epoch: 04 December)

Event Time Altitude Azimuth Distance (km) Brightness Sun altitude
Rises 12:25:43 0° 203° (SSW) 3,165 6.5 -12.7°
Reaches altitude 10° 12:28:04 10° 206° (SSW) 2,246 5.7 -12.2°
Maximum altitude 12:33:07 67° 288° (WNW) 810 3.4 -11.2°
Drops below altitude 10° 12:38:14 10° 11° (NNE) 2,275 6.0 -10.2°
Sets 12:40:38 0° 15° (NNE) 3,208 6.8 -9.7°
